Tracking 25963 objects as of 12-Aug-2022
HD Live streaming from Space Station
objects crossing your sky now

ONEWEB-0435

Track ONEWEB-0435 now!
10-day predictions
ONEWEB-0435 is classified as:


NORAD ID: 51632
Int'l Code: 2022-012L
Perigee: 1,226.6 km
Apogee: 1,231.0 km
Inclination: 87.9 °
Period: 109.9 minutes
Semi major axis: 7599 km
RCS: Unknown
Launch date: February 10, 2022
Source: United Kingdom (UK)
Launch site: FRENCH GUIANA (FRGUI)
aabbcc
Your satellite tracking list
Your tracking list is empty




NASA's NSSDC Master Catalog

Two Line Element Set (TLE):
1 51632U 22012L   22224.00001157 -.00009347  00000-0 -26836-1 0  9991
2 51632  87.8819 315.6305 0002882  94.2318 316.9149 13.10378782 26562
Source of the keplerian elements: AFSPC